�������l�o���
Date,Time,MP-1(��Sv/h),MP-2(��Sv/h),MP-3(��Sv/h),MP-4(��Sv/h),MP-5(��Sv/h),MP-6(��Sv/h),MP-7(��Sv/h),MP-8(��Sv/h),����,����(m/s),���J
2021/07/17,00:00,0.609,0.910,0.581,1.098,0.788,0.370,0.638,0.596,��쐼,5.0,��
2021/07/17,00:10,0.609,0.908,0.583,1.100,0.788,0.371,0.639,0.594,��쐼,5.7,��
2021/07/17,00:20,0.609,0.906,0.584,1.099,0.787,0.370,0.637,0.596,��쐼,5.9,��
2021/07/17,00:30,0.608,0.908,0.583,1.098,0.787,0.370,0.638,0.596,��쐼,6.6,��
2021/07/17,00:40,0.610,0.909,0.582,1.101,0.788,0.370,0.639,0.595,��쐼,6.0,��
2021/07/17,00:50,0.609,0.908,0.582,1.098,0.786,0.369,0.638,0.596,��쐼,5.8,��
2021/07/17,01:00,0.608,0.908,0.583,1.100,0.787,0.370,0.639,0.596,��쐼,5.1,��
2021/07/17,01:10,0.609,0.908,0.581,1.100,0.786,0.372,0.637,0.595,��쐼,5.4,��
2021/07/17,01:20,0.610,0.909,0.582,1.098,0.788,0.370,0.639,0.596,��쐼,4.4,��
2021/07/17,01:30,0.610,0.907,0.582,1.100,0.787,0.371,0.637,0.595,��쐼,4.3,��
2021/07/17,01:40,0.610,0.909,0.581,1.098,0.786,0.372,0.638,0.595,��,3.8,��
2021/07/17,01:50,0.609,0.910,0.582,1.100,0.788,0.370,0.637,0.596,��쐼,3.6,��
2021/07/17,02:00,0.609,0.910,0.582,1.098,0.788,0.369,0.638,0.596,��쐼,3.5,��
2021/07/17,02:10,0.609,0.909,0.581,1.100,0.787,0.371,0.638,0.594,��쐼,3.6,��
2021/07/17,02:20,0.608,0.910,0.582,1.098,0.787,0.371,0.638,0.596,��쐼,3.9,��
2021/07/17,02:30,0.609,0.910,0.581,1.100,0.788,0.369,0.638,0.594,��쐼,4.1,��
2021/07/17,02:40,0.608,0.910,0.582,1.099,0.788,0.370,0.639,0.597,��쐼,3.5,��
2021/07/17,02:50,0.611,0.911,0.583,1.099,0.788,0.371,0.637,0.595,�쐼,2.6,��
2021/07/17,03:00,0.609,0.911,0.583,1.101,0.786,0.371,0.639,0.595,�쐼,2.2,��
2021/07/17,03:10,0.610,0.909,0.583,1.098,0.787,0.370,0.636,0.595,���k��,1.4,��
2021/07/17,03:20,0.609,0.909,0.582,1.101,0.790,0.370,0.638,0.596,�k��,1.2,��
2021/07/17,03:30,0.610,0.909,0.580,1.100,0.787,0.371,0.637,0.595,�k��,0.6,��
2021/07/17,03:40,0.609,0.908,0.582,1.098,0.787,0.372,0.638,0.595,-,CALM,��
2021/07/17,03:50,0.611,0.910,0.583,1.100,0.788,0.370,0.638,0.594,�k��,0.9,��
2021/07/17,04:00,0.609,0.911,0.582,1.099,0.787,0.371,0.636,0.597,���k��,2.0,��
2021/07/17,04:10,0.611,0.910,0.581,1.102,0.787,0.371,0.638,0.595,���k��,1.9,��
2021/07/17,04:20,0.609,0.909,0.581,1.101,0.788,0.371,0.638,0.593,�k��,3.2,��
2021/07/17,04:30,0.608,0.908,0.579,1.099,0.789,0.371,0.638,0.596,���k��,2.3,��
2021/07/17,04:40,0.610,0.907,0.581,1.099,0.788,0.369,0.637,0.594,��,1.7,��
2021/07/17,04:50,0.609,0.910,0.581,1.101,0.789,0.370,0.638,0.596,���k��,1.1,��
2021/07/17,05:00,0.610,0.908,0.581,1.101,0.788,0.371,0.640,0.596,���k��,1.7,��
2021/07/17,05:10,0.609,0.908,0.583,1.100,0.788,0.370,0.639,0.596,���k��,1.2,��
2021/07/17,05:20,0.611,0.908,0.581,1.100,0.786,0.371,0.638,0.595,�k��,0.9,��
2021/07/17,05:30,0.608,0.908,0.582,1.101,0.787,0.371,0.638,0.598,�k��,0.6,��
2021/07/17,05:40,0.608,0.908,0.582,1.102,0.786,0.370,0.638,0.596,��,0.6,��
2021/07/17,05:50,0.610,0.910,0.581,1.099,0.788,0.371,0.636,0.595,���k��,1.1,��
2021/07/17,06:00,0.609,0.908,0.580,1.101,0.787,0.371,0.638,0.596,���k��,0.6,��
2021/07/17,06:10,0.609,0.906,0.580,1.101,0.788,0.371,0.638,0.596,-,CALM,��
2021/07/17,06:20,0.610,0.909,0.581,1.101,0.787,0.372,0.639,0.595,��쓌,0.9,��
2021/07/17,06:30,0.610,0.908,0.581,1.100,0.787,0.371,0.639,0.596,�쓌,0.9,��
2021/07/17,06:40,0.611,0.909,0.581,1.101,0.788,0.372,0.638,0.596,�쓌,0.9,��
2021/07/17,06:50,0.610,0.908,0.581,1.099,0.789,0.372,0.640,0.597,���쓌,1.2,��
2021/07/17,07:00,0.610,0.910,0.582,1.101,0.787,0.371,0.638,0.598,��,0.6,��
2021/07/17,07:10,0.611,0.908,0.582,1.099,0.787,0.371,0.640,0.596,�쓌,0.6,��
2021/07/17,07:20,0.610,0.909,0.582,1.100,0.787,0.371,0.640,0.596,�쓌,0.9,��
2021/07/17,07:30,0.611,0.909,0.582,1.101,0.786,0.372,0.639,0.597,���쓌,1.1,��
2021/07/17,07:40,0.609,0.908,0.581,1.100,0.787,0.370,0.639,0.600,�k��,1.2,��
2021/07/17,07:50,0.610,0.911,0.580,1.101,0.787,0.371,0.637,0.598,���k��,1.4,��
2021/07/17,08:00,0.610,0.910,0.582,1.100,0.788,0.371,0.638,0.597,���k��,1.1,��
2021/07/17,08:10,0.610,0.909,0.581,1.100,0.787,0.372,0.637,0.597,��,1.5,��
2021/07/17,08:20,0.611,0.911,0.581,1.100,0.787,0.371,0.639,0.595,���k��,1.1,��
2021/07/17,08:30,0.611,0.908,0.581,1.098,0.788,0.371,0.639,0.594,��,1.2,��
2021/07/17,08:40,0.610,0.909,0.581,1.103,0.788,0.370,0.640,0.597,���k��,1.7,��
2021/07/17,08:50,0.612,0.911,0.581,1.100,0.788,0.371,0.640,0.595,��,1.5,��
2021/07/17,09:00,0.611,0.909,0.582,1.100,0.789,0.370,0.638,0.595,��,2.0,��
2021/07/17,09:10,0.610,0.912,0.581,1.103,0.788,0.370,0.638,0.595,��,2.3,��
2021/07/17,09:20,0.613,0.908,0.581,1.102,0.787,0.370,0.639,0.595,���쓌,3.0,��
2021/07/17,09:30,0.612,0.908,0.581,1.099,0.788,0.369,0.640,0.596,���쓌,3.2,��
2021/07/17,09:40,0.611,0.910,0.583,1.101,0.787,0.370,0.641,0.595,�쓌,3.3,��
2021/07/17,09:50,0.611,0.908,0.583,1.101,0.788,0.370,0.642,0.596,�쓌,3.4,��
2021/07/17,10:00,0.610,0.911,0.583,1.100,0.789,0.370,0.641,0.596,�쓌,3.9,��
2021/07/17,10:10,0.612,0.909,0.580,1.102,0.788,0.370,0.641,0.596,�쓌,3.4,��
2021/07/17,10:20,0.612,0.910,0.580,1.101,0.790,0.370,0.640,0.596,��쓌,4.3,��
2021/07/17,10:30,0.611,0.908,0.583,1.102,0.791,0.370,0.638,0.596,��쓌,4.0,��
2021/07/17,10:40,0.612,0.909,0.583,1.103,0.792,0.371,0.638,0.596,��쓌,4.8,��
2021/07/17,10:50,0.611,0.907,0.583,1.104,0.791,0.370,0.640,0.594,��쓌,6.5,��
2021/07/17,11:00,0.611,0.909,0.582,1.102,0.793,0.370,0.640,0.596,��쓌,6.8,��
2021/07/17,11:10,0.611,0.911,0.583,1.102,0.792,0.371,0.641,0.596,��쓌,7.8,��
2021/07/17,11:20,0.613,0.912,0.583,1.100,0.793,0.370,0.640,0.597,��쓌,8.7,��
2021/07/17,11:30,0.612,0.912,0.583,1.101,0.792,0.371,0.640,0.596,��,8.9,��
2021/07/17,11:40,0.611,0.913,0.583,1.099,0.793,0.369,0.640,0.597,��,8.4,��
2021/07/17,11:50,0.613,0.911,0.581,1.103,0.791,0.372,0.640,0.597,��,6.5,��
2021/07/17,12:00,0.613,0.913,0.584,1.100,0.796,0.371,0.640,0.598,��,6.6,��
2021/07/17,12:10,0.613,0.910,0.582,1.102,0.794,0.371,0.640,0.597,��,7.4,��
2021/07/17,12:20,0.611,0.914,0.582,1.101,0.793,0.371,0.638,0.598,��,7.1,��
2021/07/17,12:30,0.614,0.912,0.585,1.103,0.793,0.372,0.641,0.597,��,6.8,��
2021/07/17,12:40,0.613,0.914,0.584,1.101,0.796,0.371,0.641,0.598,��,7.1,��
2021/07/17,12:50,0.613,0.917,0.584,1.102,0.795,0.371,0.641,0.599,��,6.8,��
2021/07/17,13:00,0.614,0.913,0.586,1.106,0.795,0.371,0.640,0.597,��,8.0,��
2021/07/17,13:10,0.613,0.913,0.585,1.104,0.796,0.370,0.641,0.597,��쓌,8.5,��
2021/07/17,13:20,0.613,0.912,0.585,1.103,0.795,0.371,0.641,0.596,��쓌,9.3,��
2021/07/17,13:30,0.615,0.915,0.585,1.105,0.793,0.371,0.640,0.597,��,8.8,��
2021/07/17,13:40,0.614,0.914,0.585,1.104,0.795,0.372,0.640,0.597,��쓌,10.0,��
2021/07/17,13:50,0.616,0.913,0.585,1.104,0.797,0.371,0.639,0.597,��,9.4,��
2021/07/17,14:00,0.614,0.915,0.584,1.104,0.795,0.372,0.638,0.595,��,9.5,��
2021/07/17,14:10,0.614,0.914,0.585,1.103,0.795,0.371,0.640,0.598,��,8.3,��
2021/07/17,14:20,0.616,0.916,0.585,1.105,0.796,0.370,0.640,0.597,��,9.6,��
2021/07/17,14:30,0.614,0.919,0.585,1.106,0.795,0.372,0.642,0.598,��,9.4,��
2021/07/17,14:40,0.612,0.916,0.586,1.104,0.797,0.371,0.643,0.598,��,8.7,��
2021/07/17,14:50,0.613,0.916,0.586,1.107,0.796,0.372,0.643,0.599,��,8.6,��
2021/07/17,15:00,0.614,0.917,0.585,1.107,0.798,0.373,0.643,0.599,��쓌,9.4,��
2021/07/17,15:10,0.614,0.918,0.587,1.107,0.798,0.372,0.642,0.598,��,7.9,��
2021/07/17,15:20,0.614,0.918,0.587,1.104,0.796,0.372,0.643,0.598,��,7.7,��
2021/07/17,15:30,0.615,0.915,0.585,1.105,0.798,0.373,0.642,0.598,��,6.0,��
2021/07/17,15:40,0.615,0.916,0.587,1.106,0.797,0.372,0.643,0.597,��,6.8,��
2021/07/17,15:50,0.613,0.918,0.588,1.108,0.797,0.372,0.644,0.595,��,7.1,��
2021/07/17,16:00,0.614,0.918,0.588,1.110,0.797,0.373,0.643,0.597,��,7.5,��
2021/07/17,16:10,0.613,0.917,0.587,1.110,0.799,0.371,0.643,0.597,��,8.1,��
2021/07/17,16:20,0.613,0.917,0.586,1.110,0.799,0.372,0.640,0.596,��,7.8,��
2021/07/17,16:30,0.616,0.916,0.586,1.110,0.798,0.373,0.642,0.597,��,7.4,��
2021/07/17,16:40,0.613,0.919,0.587,1.108,0.799,0.371,0.642,0.596,��,7.8,��
2021/07/17,16:50,0.614,0.916,0.587,1.111,0.796,0.373,0.641,0.596,��,7.0,��
2021/07/17,17:00,0.613,0.916,0.588,1.110,0.797,0.371,0.643,0.597,��,7.6,��
2021/07/17,17:10,0.615,0.917,0.586,1.109,0.796,0.372,0.641,0.598,��,6.5,��
2021/07/17,17:20,0.614,0.919,0.587,1.111,0.797,0.372,0.641,0.597,��,6.3,��
2021/07/17,17:30,0.613,0.918,0.586,1.108,0.798,0.372,0.641,0.597,��,7.4,��
2021/07/17,17:40,0.615,0.918,0.585,1.108,0.798,0.370,0.640,0.597,��,7.1,��
2021/07/17,17:50,0.615,0.919,0.586,1.110,0.798,0.372,0.642,0.597,��,7.5,��
2021/07/17,18:00,0.615,0.918,0.585,1.110,0.798,0.373,0.642,0.598,��,6.7,��
2021/07/17,18:10,0.615,0.919,0.584,1.110,0.797,0.372,0.642,0.597,��,7.3,��
2021/07/17,18:20,0.617,0.919,0.586,1.110,0.799,0.370,0.641,0.598,��,7.4,��
2021/07/17,18:30,0.615,0.920,0.584,1.109,0.798,0.372,0.640,0.599,��,7.6,��
2021/07/17,18:40,0.617,0.918,0.585,1.107,0.800,0.372,0.642,0.597,��,6.5,��
2021/07/17,18:50,0.615,0.917,0.585,1.110,0.801,0.372,0.640,0.596,��,6.6,��
2021/07/17,19:00,0.615,0.919,0.585,1.110,0.800,0.372,0.641,0.597,��,6.8,��
2021/07/17,19:10,0.614,0.917,0.586,1.109,0.798,0.371,0.641,0.596,��,6.7,��
2021/07/17,19:20,0.615,0.919,0.584,1.109,0.799,0.370,0.640,0.596,��,7.3,��
2021/07/17,19:30,0.615,0.920,0.584,1.109,0.802,0.372,0.642,0.597,��,7.2,��
2021/07/17,19:40,0.615,0.919,0.586,1.109,0.801,0.372,0.641,0.598,��,7.2,��
2021/07/17,19:50,0.615,0.918,0.585,1.109,0.800,0.372,0.641,0.597,��쐼,6.3,��
2021/07/17,20:00,0.615,0.920,0.584,1.107,0.802,0.372,0.640,0.598,��,6.1,��
2021/07/17,20:10,0.616,0.920,0.587,1.109,0.798,0.372,0.640,0.598,��,6.0,��
2021/07/17,20:20,0.616,0.921,0.585,1.110,0.800,0.372,0.641,0.598,��,6.1,��
2021/07/17,20:30,0.616,0.920,0.587,1.108,0.801,0.372,0.642,0.597,��,5.5,��
2021/07/17,20:40,0.615,0.918,0.586,1.110,0.800,0.373,0.640,0.598,��,6.8,��
2021/07/17,20:50,0.615,0.920,0.588,1.111,0.799,0.372,0.642,0.599,��,7.0,��
2021/07/17,21:00,0.613,0.920,0.588,1.109,0.800,0.371,0.642,0.599,��,8.0,��
2021/07/17,21:10,0.615,0.919,0.588,1.112,0.800,0.371,0.642,0.600,��,7.6,��
2021/07/17,21:20,0.615,0.921,0.586,1.110,0.798,0.371,0.641,0.598,��,7.4,��
2021/07/17,21:30,0.615,0.919,0.588,1.111,0.800,0.371,0.640,0.598,��,7.2,��
2021/07/17,21:40,0.615,0.919,0.587,1.111,0.800,0.372,0.642,0.597,��,6.8,��
2021/07/17,21:50,0.613,0.920,0.589,1.108,0.799,0.372,0.642,0.599,��,6.1,��
2021/07/17,22:00,0.616,0.918,0.588,1.112,0.800,0.373,0.642,0.599,��,6.3,��
2021/07/17,22:10,0.616,0.918,0.588,1.110,0.800,0.371,0.642,0.598,��쐼,6.8,��
2021/07/17,22:20,0.616,0.920,0.588,1.110,0.800,0.371,0.642,0.596,��,6.3,��
2021/07/17,22:30,0.615,0.919,0.587,1.109,0.800,0.372,0.641,0.597,��,5.0,��
2021/07/17,22:40,0.614,0.920,0.588,1.112,0.800,0.372,0.641,0.598,��,5.4,��
2021/07/17,22:50,0.614,0.919,0.587,1.111,0.799,0.370,0.640,0.599,��,5.3,��
2021/07/17,23:00,0.617,0.921,0.586,1.109,0.799,0.372,0.642,0.597,��쐼,4.7,��
2021/07/17,23:10,0.616,0.918,0.588,1.109,0.801,0.370,0.642,0.597,��,4.0,��
2021/07/17,23:20,0.614,0.919,0.586,1.111,0.801,0.371,0.643,0.598,��,4.2,��
2021/07/17,23:30,0.614,0.919,0.586,1.112,0.798,0.372,0.640,0.598,��쐼,5.3,��
2021/07/17,23:40,0.615,0.919,0.589,1.110,0.799,0.370,0.642,0.598,��,4.7,��
2021/07/17,23:50,0.615,0.921,0.589,1.111,0.800,0.370,0.642,0.599,��쐼,3.9,��
